Wind_Speed
33 34 34 35 37 38 38 39 40 41 42 44 45 46 47 48 49 49 50 50 50 51 51 52 52 52 53 54 54 55 56 58 58 58 60 61 63 64 65 67 68 70 71
34 35 36 36 37 37 38 39 41 43 44 45 46 47 47 48 49 50 50 50 51 51 52 52 52 53 54 55 56 57 58 60 61 61 63 65 66 68 70 71 73 75 77
34 34 35 36 37 38 40 42 43 44 45 45 46 47 48 49 50 50 51 51 51 52 52 53 54 55 55 56 58 59 61 62 64 65 67 69 71 73 75 76 78 79 81
34 35 35 37 39 40 41 42 43 44 44 45 47 48 49 50 50 51 51 51 52 52 53 54 55 56 57 59 60 62 64 65 67 69 71 73 75 77 79 80 81 81 81
35 35 36 38 39 40 41 42 43 44 45 46 47 49 49 50 51 51 52 52 53 54 55 56 57 58 60 62 63 65 67 69 71 74 75 77 78 80 82 83 83 81 80
35 36 37 39 40 41 42 42 43 44 45 47 48 49 50 51 52 52 53 53 54 55 56 58 59 61 63 64 66 69 71 74 76 79 80 81 82 83 83 83 82 79 75
36 37 38 39 40 41 42 43 44 45 47 48 49 49 50 52 52 53 54 55 56 58 59 61 62 64 66 68 70 72 74 77 80 82 83 83 83 83 83 80 77 74 70
35 36 38 39 40 41 42 44 45 46 47 48 49 51 52 53 54 55 56 58 59 60 62 64 65 67 70 72 74 76 78 80 81 83 83 83 82 80 78 75 71 67 62
36 36 38 39 41 42 44 45 45 46 47 49 50 52 53 54 56 57 59 60 61 63 65 67 69 71 73 76 78 79 80 81 81 81 81 80 77 74 71 67 62 58 53
36 37 39 40 42 43 44 45 46 47 48 50 51 53 55 56 58 59 61 63 65 66 68 70 72 73 76 78 80 81 81 80 79 78 76 72 69 65 61 57 54 50 46
37 38 39 41 42 43 44 45 46 48 49 51 53 55 56 58 60 62 64 67 68 70 71 72 74 76 78 79 80 80 79 78 76 73 69 65 61 56 52 49 47 44 39
37 39 40 41 42 43 44 46 47 49 51 53 54 56 58 60 62 65 67 69 72 73 74 75 77 78 78 78 78 77 76 74 71 67 62 58 53 48 45 43 40 37 34
38 39 40 41 42 44 45 47 48 50 52 54 56 58 60 63 65 68 70 72 74 76 77 78 78 78 78 76 75 74 72 69 65 60 55 50 46 43 41 38 35 33 30
38 39 41 42 43 44 46 48 50 52 55 57 59 61 64 66 68 71 73 74 76 78 79 79 78 77 75 73 71 69 66 62 57 53 48 45 42 39 36 34 31 29 27
39 40 41 43 44 46 48 50 52 55 57 60 62 65 67 69 71 74 76 78 79 80 80 79 77 74 72 69 66 62 59 55 51 47 44 41 38 35 32 30 28 26 24
40 41 43 44 46 48 50 52 54 57 60 63 65 68 71 73 75 77 78 80 80 80 79 76 73 70 67 63 59 55 52 49 46 43 40 37 33 30 28 27 25 24 22
41 43 44 46 48 50 53 55 57 59 62 65 68 71 74 76 78 79 80 80 79 77 75 71 68 64 60 56 53 50 47 44 42 39 36 32 29 27 25 24 23 22 20
43 44 46 49 51 53 56 58 61 63 66 68 71 74 76 78 79 80 80 79 76 73 70 66 62 59 55 52 49 46 43 40 38 34 31 28 26 25 23 22 21 20 19
45 47 49 52 54 56 59 62 64 67 70 72 74 76 78 79 79 78 78 76 72 68 64 61 58 54 51 48 45 41 38 36 33 30 28 26 25 23 22 21 20 18 18
47 50 52 54 57 60 63 66 69 71 73 75 77 78 78 78 77 75 73 70 66 63 60 56 53 50 47 43 40 37 34 32 30 28 26 24 23 22 20 19 18 17 17
50 53 55 58 61 63 67 70 72 74 76 77 77 77 78 76 74 70 67 64 61 58 55 51 48 45 42 39 36 33 32 30 28 26 25 23 22 21 19 18 18 17 16
53 56 58 61 64 67 70 73 75 76 77 77 76 75 74 71 68 64 62 59 56 53 50 47 43 40 38 35 32 31 29 27 26 25 23 22 21 20 19 18 17 17 16
56 59 62 65 68 70 73 75 76 77 76 75 73 71 68 65 62 60 57 54 51 48 45 42 39 36 33 31 29 28 27 25 24 23 22 21 20 19 18 17 17 16 16
60 63 65 68 71 73 75 76 76 75 73 71 69 66 63 60 58 56 53 50 47 44 41 37 34 31 30 28 26 25 25 24 23 22 20 20 19 18 18 17 17 17 16
63 66 68 71 73 74 75 74 73 71 69 66 63 61 59 56 54 50 47 44 41 38 35 32 29 27 26 25 24 24 23 22 21 20 19 19 18 18 18 17 17 17 17
66 68 71 72 73 73 72 71 68 66 63 60 58 56 53 51 47 44 41 39 35 32 29 27 26 25 24 23 22 22 21 20 20 19 18 18 18 18 18 18 18 18 18
Wind_Direction
265 267 270 272 275 276 278 279 281 284 286 288 289 291 292 293 294 294 295 296 296 296 296 296 296 295 295 294 294 294 294 293 293 292 292 292 291 291 290 289 289 288 287
266 268 270 272 274 276 278 280 283 285 287 289 290 291 293 294 294 295 296 296 297 297 297 296 296 296 296 296 295 295 295 295 294 294 294 293 293 292 292 291 291 290 289
268 270 272 274 275 278 280 282 284 286 288 289 291 292 293 294 295 296 296 297 297 297 297 297 298 297 297 297 297 297 296 296 296 296 295 295 294 294 293 293 292 292 291
271 272 273 275 277 279 281 284 285 287 289 291 292 293 294 295 296 296 297 297 298 298 298 298 299 298 298 298 298 298 298 297 297 297 297 296 296 295 295 294 293 293 292
272 273 275 278 280 282 284 285 286 288 290 292 293 293 294 295 296 296 297 298 298 299 299 299 299 300 299 299 299 299 299 299 299 298 298 297 297 296 296 295 295 294 293
273 275 277 279 281 283 285 286 288 289 291 293 293 294 295 295 296 297 298 298 299 299 299 300 300 300 300 300 300 300 300 300 300 300 300 299 299 298 298 297 296 295 293
276 277 279 281 283 285 286 288 289 291 292 293 294 294 295 296 297 298 298 299 299 300 300 301 301 301 301 301 301 301 301 302 301 301 301 301 300 300 299 298 296 295 293
277 279 281 282 285 286 287 289 290 292 293 293 294 294 296 297 298 298 299 300 300 301 302 302 302 302 302 302 302 302 302 302 302 301 302 302 301 301 299 298 297 295 293
279 280 281 283 285 287 288 289 291 292 293 294 294 295 296 297 298 299 300 301 301 302 303 303 303 303 303 302 303 303 303 303 302 302 302 302 301 301 300 298 297 295 293
280 281 283 284 286 287 289 290 292 293 294 295 295 296 297 298 298 300 301 302 302 303 303 303 304 304 304 303 303 304 303 303 303 303 302 302 301 301 299 298 297 295 293
282 283 285 286 287 288 290 291 292 294 294 295 296 296 297 298 300 301 302 303 303 304 304 304 304 304 304 304 304 304 304 304 304 304 303 302 301 300 298 296 295 294 293
283 285 287 288 289 290 291 292 293 295 295 296 297 298 299 300 301 302 303 303 304 304 305 305 305 305 305 304 304 304 304 305 304 304 303 302 301 299 297 296 294 293 291
285 286 288 289 290 290 291 293 294 295 296 297 298 299 300 301 302 303 303 304 305 305 305 306 306 305 305 304 304 304 304 304 304 303 302 301 300 299 297 294 293 291 290
286 288 289 290 291 292 293 294 295 297 298 299 300 301 302 302 303 303 304 304 305 305 305 305 305 305 304 304 304 304 303 303 302 302 301 300 298 297 295 292 291 289 287
288 289 290 291 292 294 295 296 297 299 300 301 301 302 303 303 304 304 305 305 305 305 305 305 305 304 304 304 303 303 302 301 301 300 300 299 297 295 292 290 289 287 286
290 291 292 293 294 295 297 298 299 300 301 302 303 303 304 305 305 305 305 306 306 305 305 306 305 305 305 304 303 303 302 301 300 299 298 297 294 292 290 289 287 285 284
292 293 294 295 296 297 298 300 300 301 302 303 304 305 305 305 305 306 306 306 306 305 305 305 305 305 304 304 303 302 301 300 298 297 296 294 292 290 288 287 285 283 281
294 294 296 297 298 299 300 301 302 303 304 305 305 305 305 305 306 306 305 305 305 305 304 304 304 304 303 302 301 300 300 298 296 294 292 290 289 288 286 284 282 280 278
295 296 298 299 300 301 302 303 304 305 305 306 306 306 306 306 306 306 305 305 305 304 304 303 303 302 302 301 300 299 298 297 294 291 289 287 287 285 283 280 277 276 274
297 298 300 301 302 303 304 304 305 306 306 307 307 306 306 306 306 306 305 305 304 304 303 303 302 301 300 299 298 296 296 294 291 288 285 284 284 282 279 276 273 272 271
299 300 302 303 304 304 305 306 306 307 307 307 307 307 307 307 307 306 306 305 304 304 303 302 301 300 298 297 295 293 293 291 288 285 282 281 279 277 275 271 269 268 266
301 302 303 304 305 305 306 307 307 308 308 308 308 308 308 308 307 307 306 306 304 303 302 301 300 298 297 295 293 292 290 288 285 282 279 277 275 273 270 267 265 264 261
303 304 304 305 306 307 307 308 308 308 308 308 308 308 308 308 307 307 306 305 304 303 301 300 298 297 295 292 291 290 288 285 283 280 276 273 271 268 266 264 262 259 257
304 305 306 307 307 308 308 309 309 309 309 309 309 309 308 308 307 307 306 305 304 302 300 298 297 295 293 291 289 288 286 283 280 276 272 268 266 264 262 261 258 256 254
306 306 307 308 308 309 309 309 309 309 309 309 309 308 308 308 308 307 307 306 305 303 301 298 295 294 292 290 288 286 285 281 277 273 268 265 263 261 259 258 256 254 253
307 308 308 309 310 310 310 310 310 309 309 309 309 309 309 309 308 308 307 307 305 303 301 298 296 294 293 290 288 286 284 280 275 270 264 261 259 258 257 256 255 254 253
Height
5717 5716 5716 5715 5714 5712 5710 5708 5706 5704 5701 5698 5695 5692 5688 5684 5679 5675 5671 5666 5662 5657 5652 5648 5643 5638 5634 5629 5624 5619 5614 5609 5606 5604 5597 5591 5586 5581 5576 5571 5565 5560 5556
5708 5707 5707 5706 5704 5703 5701 5699 5696 5694 5691 5687 5684 5680 5676 5672 5668 5663 5659 5654 5649 5645 5640 5635 5630 5625 5620 5615 5610 5604 5599 5594 5589 5586 5581 5574 5568 5561 5555 5550 5544 5538 5532
5699 5698 5698 5696 5695 5693 5691 5689 5686 5683 5680 5676 5673 5669 5664 5660 5656 5651 5647 5642 5637 5632 5627 5622 5617 5611 5606 5600 5595 5589 5583 5577 5571 5567 5562 5556 5549 5541 5534 5528 5522 5515 5508
5690 5689 5688 5687 5685 5683 5681 5678 5675 5672 5669 5665 5661 5657 5653 5648 5644 5639 5634 5629 5624 5619 5613 5608 5602 5597 5591 5585 5579 5573 5566 5560 5553 5547 5542 5535 5528 5519 5511 5504 5498 5491 5483
5681 5680 5678 5677 5675 5673 5670 5668 5664 5661 5658 5654 5650 5645 5641 5636 5631 5626 5622 5617 5611 5606 5600 5594 5588 5582 5575 5569 5562 5556 5548 5541 5534 5526 5520 5513 5506 5496 5487 5479 5472 5465 5458
5671 5670 5669 5667 5665 5662 5660 5657 5653 5650 5646 5642 5638 5633 5628 5624 5619 5614 5608 5603 5598 5592 5586 5580 5573 5567 5560 5553 5545 5538 5529 5520 5512 5504 5497 5489 5481 5471 5461 5453 5445 5438 5434
5662 5660 5659 5657 5654 5652 5649 5646 5642 5638 5635 5630 5626 5621 5616 5611 5606 5600 5595 5589 5584 5577 5571 5564 5558 5550 5542 5535 5528 5520 5511 5500 5490 5480 5472 5464 5455 5446 5436 5428 5420 5413 5408
5652 5650 5649 5646 5644 5641 5638 5634 5631 5627 5623 5618 5613 5608 5603 5598 5592 5587 5581 5575 5569 5562 5555 5548 5541 5533 5524 5515 5508 5500 5491 5481 5470 5459 5449 5440 5430 5420 5411 5403 5397 5391 5388
5642 5640 5638 5636 5633 5630 5627 5623 5619 5615 5610 5606 5601 5596 5590 5585 5578 5572 5566 5560 5554 5547 5540 5532 5523 5515 5506 5496 5487 5479 5471 5460 5449 5438 5428 5417 5408 5399 5389 5382 5377 5372 5369
5632 5630 5628 5625 5622 5619 5615 5611 5607 5603 5598 5593 5588 5582 5577 5571 5564 5558 5550 5544 5538 5531 5524 5515 5505 5496 5486 5475 5464 5455 5447 5438 5427 5418 5408 5398 5389 5380 5372 5365 5360 5356 5353
5622 5619 5617 5614 5610 5607 5603 5599 5595 5590 5586 5581 5575 5569 5563 5557 5550 5542 5534 5526 5519 5512 5505 5496 5487 5476 5466 5455 5443 5433 5424 5415 5406 5397 5388 5380 5372 5365 5358 5352 5347 5343 5341
5611 5609 5606 5602 5599 5595 5591 5587 5582 5578 5573 5567 5561 5555 5548 5541 5534 5526 5518 5509 5500 5492 5485 5476 5467 5456 5445 5435 5424 5414 5403 5394 5386 5378 5371 5363 5357 5351 5346 5341 5336 5333 5330
5600 5597 5594 5591 5587 5583 5579 5575 5570 5564 5559 5553 5547 5541 5534 5526 5518 5509 5501 5492 5482 5472 5464 5455 5446 5435 5424 5415 5404 5394 5385 5376 5368 5362 5355 5349 5343 5339 5334 5330 5327 5324 5322
5589 5586 5583 5579 5575 5571 5566 5562 5556 5550 5544 5538 5531 5524 5517 5509 5500 5491 5482 5473 5464 5453 5444 5435 5425 5415 5404 5394 5385 5376 5367 5359 5352 5347 5341 5337 5332 5328 5323 5320 5318 5316 5314
5578 5574 5571 5567 5563 5558 5554 5548 5542 5536 5529 5522 5515 5507 5499 5492 5483 5472 5462 5453 5443 5433 5422 5414 5405 5395 5386 5377 5368 5359 5351 5344 5339 5333 5329 5325 5321 5317 5314 5312 5310 5308 5306
5566 5562 5559 5554 5550 5545 5540 5535 5528 5521 5514 5506 5497 5489 5480 5472 5462 5453 5442 5432 5421 5410 5400 5392 5384 5375 5367 5358 5351 5344 5337 5331 5326 5321 5318 5314 5311 5308 5306 5304 5302 5301 5299
5554 5550 5546 5542 5537 5531 5526 5520 5514 5507 5499 5490 5481 5471 5461 5451 5442 5431 5421 5411 5401 5390 5380 5372 5364 5357 5349 5342 5336 5330 5324 5319 5314 5310 5307 5304 5301 5300 5298 5296 5295 5294 5293
5542 5538 5533 5528 5523 5517 5510 5504 5497 5490 5483 5474 5464 5452 5441 5431 5421 5410 5399 5389 5381 5371 5361 5354 5347 5340 5333 5327 5322 5316 5311 5307 5303 5300 5297 5295 5293 5292 5290 5289 5288 5287 5287
5529 5524 5519 5514 5508 5501 5494 5487 5480 5472 5463 5455 5445 5434 5422 5411 5401 5390 5378 5368 5359 5352 5343 5336 5330 5324 5318 5313 5308 5304 5299 5296 5293 5290 5288 5287 5285 5284 5283 5282 5281 5281 5281
5516 5510 5505 5499 5492 5485 5478 5470 5462 5453 5443 5434 5424 5413 5401 5390 5380 5370 5359 5349 5340 5333 5326 5320 5314 5309 5304 5299 5295 5292 5289 5286 5283 5281 5280 5278 5277 5277 5276 5275 5275 5275 5275
5502 5496 5490 5483 5476 5468 5460 5451 5442 5433 5423 5413 5403 5391 5379 5369 5359 5350 5340 5331 5323 5316 5310 5304 5299 5295 5290 5287 5284 5281 5278 5276 5274 5272 5271 5270 5270 5269 5269 5269 5269 5269 5270
5488 5482 5475 5467 5459 5451 5442 5432 5423 5412 5402 5391 5381 5371 5359 5348 5339 5331 5322 5314 5306 5300 5294 5290 5285 5281 5278 5275 5272 5270 5268 5266 5265 5264 5263 5263 5262 5262 5262 5263 5263 5264 5264
5473 5466 5458 5450 5442 5433 5423 5413 5402 5392 5381 5370 5360 5351 5341 5331 5322 5314 5306 5298 5291 5286 5280 5276 5273 5270 5266 5264 5262 5260 5259 5257 5256 5255 5255 5255 5255 5255 5256 5256 5257 5258 5259
5457 5449 5441 5433 5423 5414 5404 5393 5382 5371 5361 5351 5341 5332 5323 5314 5306 5298 5290 5283 5277 5272 5268 5264 5261 5259 5256 5254 5253 5251 5250 5249 5248 5247 5247 5247 5248 5248 5249 5250 5251 5252 5253
5440 5432 5423 5414 5405 5394 5384 5373 5363 5352 5342 5333 5324 5315 5307 5298 5291 5283 5276 5270 5265 5260 5256 5253 5251 5249 5247 5245 5244 5243 5241 5240 5240 5239 5240 5240 5241 5242 5243 5244 5245 5246 5247
5423 5414 5405 5395 5385 5375 5364 5354 5344 5334 5325 5316 5308 5299 5292 5284 5277 5271 5265 5259 5254 5250 5247 5245 5242 5240 5239 5237 5236 5235 5234 5233 5232 5232 5233 5234 5234 5235 5236 5237 5238 5240 5241